Tracking 31027 objects as of 19-Jul-2025
HD Live streaming from Space Station
objects crossing your sky now

SL-8 DEB

Track SL-8 DEB now!
10-day predictions


NORAD ID: 21182
Int'l Code: 1991-009AV
Perigee: 1,468.4 km
Apogee: 1,713.5 km
Inclination: 74.0 °
Period: 117.8 minutes
Semi major axis: 7961 km
RCS: 0.1034 m2 (medium)
Launch date: February 12, 1991
Source: Commonwealth of Independent States (former USSR) (CIS)
Launch site: PLESETSK MISSILE AND SPACE COMPLEX (PKMTR)

Note: This is SATELLITE DEBRIS
Your satellite tracking list
STARLINK-3957
Track 1 satellite(s)




NASA's NSSDC Master Catalog

Two Line Element Set (TLE):
1 21182U 91009AV  25199.65277380  .00000055  00000-0  63258-3 0  9994
2 21182  73.9966 168.1648 0153917  47.9547 128.9292 12.22013828532172
Source of the keplerian elements: AFSPC